Location: Unspecified
(0.0000°N, 0.0000°E)
Time: 06:00:44
(UTC+00:00)

Hubble Space Telescope - Pass Details

Date: 15 October 2019
Orbit: 536 x 540 km, 28.5° (Epoch: 14 October)

Event Time Altitude Azimuth Distance (km) Brightness Sun altitude
Rises 18:56:40 0° 316° (NW) 2,669 4.8 -17.5°
Reaches altitude 10° 18:59:07 10° 327° (NNW) 1,780 3.7 -18.1°
Enters shadow 19:02:36 30° 25° (NNE) 967 1.7 -19.0°
